Location: Battersea Observatory
(44.4318°N, 76.3841°W)
Time: 22:26:51
(UTC-04:00)

Tiros 1 despin weight - Pass Details

Date: 29 January 2022
Orbit: 592 x 639 km, 48.2° (Epoch: 25 May)

Event Time Altitude Azimuth Distance (km) Brightness Sun altitude
Rises 13:50:47 0° 192° (SSW) 2,831 ? 24.3°
Reaches altitude 10° 13:53:54 10° 169° (S) 1,943 ? 24.1°
Maximum altitude 13:56:27 15° 134° (SE) 1,647 ? 23.9°
Drops below altitude 10° 13:59:01 10° 99° (E) 1,967 ? 23.7°
Sets 14:02:11 0° 77° (ENE) 2,889 ? 23.5°
